Hlavní strana
METAR-TAF:

METAR-TAF

Letiště :

Kokomo Municipal Airport

Kokomo, Indiana, Spojené státy americké

zeměpisná šířka: 40-32N, zeměpisná délka: 086-04W, výška: 253 m

Aktuální stav počasí

Zpráva byla vytvořena před 1 hodinou a 3 minutami, v 08:56 UTC
Západoseverozápadní vítr 4 kt
Teplota 14°C
Vlhkost vzduchu 88%
Tlak 1020 hPa
Viditelnost: 16.1 km
Zataženo ve výšce 5000 ft

METAR: KOKK 300856Z AUTO 29004KT 10SM OVC050 14/12 A3012 RMK AO2 SLP196 T01390117 51008

Čas: 05:59 (09:59 UTC)


TAF: chybějící

Stav a předpovědi počasí z více než 4 000 letišť (zprávy METAR a TAF).

Červené a žluté tečky na mapě představují dostupné meteorologické stanice.

Když kurzor umístíte na tečku, zobrazí se název stanice.

Pak kliknutím zobrazíte stav a předpověď počasí.

Chcete-li změnit mapu, kliknutím na zelené tlačítko se znaménkem +mapu přiblížíte, kliknutím na zelené tlačítko se znaménkem – mapu oddálíte a kliknutím na zelené šipky přejdete na sousední mapy.


METAR-TAF: